Skip Page Navigation
NASA JPL Caltech
NASA Logo - Jet Propulsion Laboratory + View the NASA Portal
+ Center for Near-Earth Object Studies
JPL Home Earth Solar System Stars & Galaxies Technology
JPL Solar System Dynamics
BODIES ORBITS EPHEMERIDES TOOLS PHYSICAL DATA DISCOVERY FAQ SITE MAP
IMPORTANT: The SSD Announcement email list is now available. Major changes are coming in the near future, including possible hostname and/or URL changes. To be notified of such changes, subscribe to this email list.

Please visit this page for more details.


JPL Small-Body Database Browser
Search: [ help ]  
183999 (2004 EV76)
Classification: Main-belt Asteroid          SPK-ID: 2183999
Ephemeris | Orbit Diagram | Orbital Elements | Mission Design | Physical Parameters | Discovery Circumstances | Close-Approach Data ]

[ show orbit diagram ]
Orbital Elements at Epoch 2459000.5 (2020-May-31.0) TDB
Reference: JPL 16 (heliocentric ecliptic J2000)
 Element Value Uncertainty (1-sigma)   Units 
e .07152710231717793 3.9828e-08  
a 2.678862529265785 2.5882e-08 au
q 2.487251255041337 1.0926e-07 au
i 4.943403281558261 5.6612e-06 deg
node 142.6777868028917 5.4426e-05 deg
peri 95.24630732443126 7.145e-05 deg
M 193.0270021335326 4.9454e-05 deg
tp 2459743.293016677518
(2022-Jun-12.79301668)
0.00022598 TDB
period 1601.489399009038
4.38
2.3209e-05
6.354e-08
d
yr
n .2247907480516319 3.2577e-09 deg/d
Q 2.870473803490233 2.7733e-08 au
  Orbit Determination Parameters
   # obs. used (total)      352  
   data-arc span      8060 days (22.07 yr)  
   first obs. used      1997-10-04  
   last obs. used      2019-10-29  
   planetary ephem.      DE431  
   SB-pert. ephem.      SB431-N16  
   condition code      0  
   norm. resid. RMS      .53516  
   source      ORB  
   producer      Otto Matic  
   solution date      2019-Nov-07 20:44:06  

Additional Information
 Earth MOID = 1.48124 au 
 Jupiter MOID = 2.13038 au 
 T_jup = 3.368 
[ show covariance matrix ]

Ephemeris | Orbit Diagram | Orbital Elements | Mission Design | Physical Parameters | Discovery Circumstances | Close-Approach Data ]

Physical Parameter Table
Parameter Symbol Value Units Sigma Reference Notes
absolute magnitude H 16.2   n/a MPO454266  

183999 (2004 EV76)          Discovered 2004-Mar-15 by CSS at Catalina
Reference: 20080420/Numbers.arcLast Updated: 2008-04-23

[ show close-approach data ]
Ephemeris | Orbit Diagram | Orbital Elements | Mission Design | Physical Parameters | Discovery Circumstances | Close-Approach Data ]
ABOUT SSD CREDITS/AWARDS PRIVACY/COPYRIGHT GLOSSARY LINKS
FirstGov 2020-May-30 19:03 UT
(server date/time)  
NASA Home Page
Site Manager:   Ryan S. Park
Webmaster  Alan B. Chamberlin